STARLINK-4457, 53663

Orbit data source: Space-Track

STARLINK-4457, 53663 is a payload satellite owned by SpaceX/Seattle (US) in SSO that was launched on Wed, 31 Aug 2022 UTC via an FALCON 9 launch vehicle from the Air Force Western Test Range (AFWTR). Payload-class satellites include a variety of spacecraft equipped with specific instruments for various scientific and technological missions. These include communications satellites like Starlink; space stations such as the ISS; scientific satellites like the Hubble; Earth observation satellites from companies like Planet Labs, Umbra, and HawkEye 360; GPS; miniature CubeSats for education and research; and military/defense satellites.

Loading next visibility...
Identifier
53663, 2022-105R
Orbit
SSO
Country
Flag of USUS
Related business
Manufacturer
SpaceX/Seattle
Mission
Operational Commercial Communications
Bus & Motor
STARLINK, Unknown motor
Mass
300 kg wet, ~290 kg dry
Launch date (UTC)
2022-08-31 (4 years ago)
Launch vehicle
FALCON 9
Launch site
Air Force Western Test Range (AFWTR)
Object type
Payload
Rocket body
Debris
Shape & HBR
Box + 1 Pan, 10.1 m
Radar Cross Section
13.562 m², Large (>1 m²)

Expand to show TLE details & history
Last TLE update: 2 days ago

TLE from 2 days ago
0 STARLINK-4457
1 53663U 22105R   26171.17315720 -.00000990  00000-0 -64674-4 0  9997
2 53663  97.3412  51.1874 0002410  72.6505 287.4986 15.05657238208724
Epoch: 2026-06-20T04:09Z
TLE epoch observation values (Epoch: 2026-06-20T04:09:20.782Z)
Latitude
Longitude
80.45922°
Altitude
552.06 km
Speed
7.586 km/s
True Right ascension
03h 24m 44s
True Declination
0° 00' 00"
Sunlit
Object was in daylight at epoch
Visualization orbit readout
Latitude
Unknown
Longitude
Unknown
Altitude
Unknown
Speed
Unknown
Apparent Right ascension
Unknown
Apparent Declination
Unknown
Sunlit
N/A
Visualization observer readout
Local Sidereal Time
21:25:22
Azimuth
Unknown
Elevation
Unknown
Doppler factor
Unknown
Orbital elements
Apogee altitude
548.14 km
Perigee altitude
544.802 km
Semi-major axis
6,924.608 km
Eccentricity
0.00024
Inclination
97.3412°
RAAN
51.1874°
Arg. of periapsis
72.6505°
True anomaly
287.47226°
Mean anomaly
287.4986°
Eccentric anomaly
287.48543°
Mean motion
3.76661 °/min
Orbital period
95.58 mins
BSTAR
-0.000064674
Loading maneuver chart data...
Computing Atmospheric mass density...
Loading historical data...
Loading historical data...
Loading historical data...
Loading historical data...
Loading historical data...
Loading historical data...
Loading historical data...

Documentation

Showing up to 5 results
|